User: anonymous   Login
Location: Pardubice
(50.0330°N, 15.7830°E)
Time: 12:38:18
(UTC+02:00)
Language:

SDO - Orbit

View from above orbital plane
View from above orbital plane
View from above satellite
View from above satellite

Ground track
Ground track

The orbit data is extracted from the following two-line orbital elements,

1 36395U 10005A   19168.37154319 -.00000071 +00000-0 +00000-0 0  9999
2 36395 029.7346 127.5633 0001606 005.3516 164.4432 01.00272450034427
Epoch (UTC): 17 June 2019 08:55:01
Eccentricity: 0.0001606
inclination: 29.7346°
perigee height: 35779 km
apogee height: 35793 km
right ascension of ascending node: 127.5633°
argument of perigee: 5.3516°
revolutions per day: 1.00272450
mean anomaly at epoch: 164.4432°
orbit number at epoch: 3442

The dashed part of the orbit path shows where the satellite is in the earth's shadow,  

DLR